Location: Devargunta
(16.7631°N, 80.9077°E)
Time: 19:14:39
(UTC+00:00)

Cosmos 1844 Rocket - Pass Details

Date: 19 January 2021
Orbit: 826 x 843 km, 71.0° (Epoch: 03 March)

Event Time Altitude Azimuth Distance (km) Brightness Sun altitude
Rises 13:11:36 0° 215° (SW) 3,386 6.8 -11.3°
Reaches altitude 10° 13:14:13 10° 223° (SW) 2,453 6.1 -11.9°
Maximum altitude 13:19:22 36° 289° (WNW) 1,296 4.2 -13.0°
Drops below altitude 10° 13:24:32 10° 355° (N) 2,456 5.0 -14.2°
Sets 13:27:10 0° 4° (N) 3,390 5.6 -14.8°
